TimeEEST,TemperatureF,Dew PointF,Humidity,Sea Level PressureIn,VisibilityMPH,Wind Direction,Wind SpeedMPH,Gust SpeedMPH,PrecipitationIn,Events,Conditions,WindDirDegrees,DateUTC
12:50 AM,51.8,48.2,88,30.06,-9999.0,North,9.2,-,N/A,,Clear,350,2013-07-06 21:50:00
1:50 AM,48.2,46.4,93,30.06,-9999.0,Calm,Calm,-,N/A,,Clear,0,2013-07-06 22:50:00
2:50 AM,50.0,46.4,87,30.06,-9999.0,North,3.5,-,N/A,,Clear,360,2013-07-06 23:50:00
3:50 AM,48.2,46.4,93,30.06,-9999.0,Calm,Calm,-,N/A,,Clear,0,2013-07-07 00:50:00
4:50 AM,46.4,44.6,93,30.06,-9999.0,Calm,Calm,-,N/A,,Clear,0,2013-07-07 01:50:00
5:50 AM,42.8,41.0,93,30.06,-9999.0,Calm,Calm,-,N/A,,Clear,0,2013-07-07 02:50:00
6:50 AM,55.4,48.2,77,30.09,-9999.0,North,1.2,-,N/A,,Clear,10,2013-07-07 03:50:00
7:50 AM,60.8,46.4,59,30.09,-9999.0,Variable,2.3,-,N/A,,Clear,0,2013-07-07 04:50:00
8:50 AM,62.6,46.4,55,30.09,-9999.0,WNW,4.6,-,N/A,,Clear,300,2013-07-07 05:50:00
9:00 AM,67,47,38,,9,South,2.3,,,,,170,2013-07-07 06:00:00
9:50 AM,64.4,44.6,49,30.09,-9999.0,WNW,5.8,-,N/A,,Clear,300,2013-07-07 06:50:00
10:50 AM,66.2,48.2,52,30.09,-9999.0,NW,4.6,-,N/A,,Clear,310,2013-07-07 07:50:00
11:50 AM,73.4,48.2,41,30.09,-9999.0,WNW,8.1,-,N/A,,Clear,300,2013-07-07 08:50:00
12:50 PM,73.4,44.6,36,30.12,-9999.0,NNW,4.6,-,N/A,,Clear,330,2013-07-07 09:50:00
1:50 PM,75.2,44.6,34,30.12,-9999.0,North,9.2,-,N/A,,Clear,350,2013-07-07 10:50:00
2:50 PM,77.0,44.6,32,30.12,6.2,West,8.1,-,N/A,,Partly Cloudy,280,2013-07-07 11:50:00
3:00 PM,84,37,11,,9,North,4.6,,,,,0,2013-07-07 12:00:00
3:50 PM,78.8,37.4,23,30.12,6.2,NW,17.3,-,N/A,,Partly Cloudy,310,2013-07-07 12:50:00
4:50 PM,75.2,44.6,34,30.09,6.2,North,15.0,-,N/A,,Partly Cloudy,350,2013-07-07 13:50:00
5:50 PM,73.4,46.4,38,30.09,6.2,NNW,18.4,-,N/A,,Partly Cloudy,340,2013-07-07 14:50:00
6:50 PM,69.8,46.4,43,30.12,-9999.0,NNW,18.4,-,N/A,,Clear,330,2013-07-07 15:50:00
7:50 PM,66.2,50.0,56,30.12,-9999.0,NNW,15.0,-,N/A,,Clear,340,2013-07-07 16:50:00
8:50 PM,62.6,50.0,63,30.15,-9999.0,North,12.7,-,N/A,,Clear,350,2013-07-07 17:50:00
9:00 PM,70,49,37,,9,North,6.9,,,,,350,2013-07-07 18:00:00
9:50 PM,59.0,50.0,72,30.15,-9999.0,North,8.1,-,N/A,,Clear,350,2013-07-07 18:50:00
10:50 PM,57.2,50.0,77,30.15,-9999.0,NNW,10.4,-,N/A,,Clear,330,2013-07-07 19:50:00
11:50 PM,55.4,50.0,82,30.15,-9999.0,North,6.9,-,N/A,,Clear,350,2013-07-07 20:50:00